Regional Weather Roundup
Issued by NWS

Home | Current Version | Previous Version | Text Only | Print | Product List | Glossary Off
Versions: 1 2 3 4 5 6 7 8 9 10 11 12 13 14 15 16 17 18 19 20 21 22 23 24 25 26 27 28 29 30 31 32 33 34 35 36 37 38 39 40 41 42 43 44 45 46 47 48 49 50

000
ASUS43 KOAX 300502
RWRNE

WEATHER ROUNDUP FOR NEBRASKA
NATIONAL WEATHER SERVICE OMAHA NE
1200 AM CDT THU JUL 30 2015

NOTES: SATELLITE DATA IS BEING USED TO AUGMENT CLOUD COVER ABOVE
       12000 FEET.
       "FAIR" INDICATES FEW OR NO CLOUDS BELOW 12,000 FEET WITH NO
       SIGNIFICANT WEATHER AND/OR OBSTRUCTIONS TO VISIBILITY.

  * THESE STATIONS DO NOT REPORT WEATHER SUCH AS RAIN...SNOW OR FOG.

NEZ001>004-019>022-054>056-300600-
NEBRASKA PANHANDLE

CITY           SKY/WX    TMP DP  RH WIND       PRES   REMARKS
SCOTTSBLUFF    MOCLDY    69  52  54 E9        30.23R
ALLIANCE       CLEAR     61  51  70 S9        30.23R
CHADRON        CLEAR     62  51  67 CALM      30.21S
KIMBALL        PTCLDY    65  43  43 SE12      30.28S
SIDNEY         CLEAR     66  42  41 S12       30.28S
$$

NEZ057>060-069>072-079>082-300600-
SOUTHWEST NEBRASKA

CITY           SKY/WX    TMP DP  RH WIND       PRES   REMARKS
NORTH PLATTE   CLEAR     59  54  83 SE3       30.24S
IMPERIAL       CLEAR     67  49  52 S7        30.26S
MCCOOK         CLEAR     64  56  75 MISG      30.25S
$$

NEZ005>010-023>029-035>040-094-300600-
NORTH CENTRAL NEBRASKA

CITY           SKY/WX    TMP DP  RH WIND       PRES   REMARKS
VALENTINE      CLEAR     72  46  39 CALM      30.19R
AINSWORTH      CLEAR     69  55  60 S10       30.19S
BROKEN BOW     CLEAR     64  54  69 S7        30.23S
ORD            CLEAR     62  56  80 SW5       30.19S
$$

NEZ041-046>049-061>064-073>077-083>087-300600-
SOUTH CENTRAL NEBRASKA

CITY           SKY/WX    TMP DP  RH WIND       PRES   REMARKS
GRAND ISLAND   CLEAR     64  55  72 SW5       30.21F
AURORA         CLEAR     61  60  96 SW3       30.21S
HASTINGS       CLEAR     62  57  83 SW3       30.22S
HEBRON         CLEAR     61  57  88 CALM      30.20S
HOLDREGE       CLEAR     62  53  73 S3        30.24S
KEARNEY *      CLEAR     66  54  63 S3        30.23S
$$

NEZ011>018-030>034-042>045-300600-
NORTHEAST NEBRASKA

CITY           SKY/WX    TMP DP  RH WIND       PRES   REMARKS
NORFOLK        CLEAR     67  60  78 SW9       30.16R
ALBION         CLEAR     65  55  69 SW3       30.19S
BLAIR          CLEAR     67  58  72 SW5       30.17R
COLUMBUS *     CLEAR     70  57  64 SW5       30.18S
FREMONT        CLEAR     71  58  64 SW6       30.17R
TEKAMAH        CLEAR     67  62  84 SW7       30.14S
$$

NEZ050>053-065>068-078-088>093-300600-
SOUTHEAST NEBRASKA

CITY           SKY/WX    TMP DP  RH WIND       PRES   REMARKS
LINCOLN        CLEAR     67  59  75 CALM      30.19R
OMAHA EPPLEY   CLEAR     69  62  78 S6        30.16R
BEATRICE       CLEAR     65  63  90 CALM      30.19R
FALLS CITY     CLEAR     70  66  87 S3        30.17R
NEBRASKA CITY  CLEAR     67  59  75 SW6       30.17S
$$

NEZ044-045-051>053-067-300600-
OMAHA AREA

CITY           SKY/WX    TMP DP  RH WIND       PRES   REMARKS
OMAHA EPPLEY   CLEAR     69  62  78 S6        30.16R
BLAIR          CLEAR     67  58  72 SW5       30.17R
FREMONT        CLEAR     71  58  64 SW6       30.17R
OFFUTT AFB     CLEAR     62  61  95 CALM      30.15S
WAHOO          FAIR      66  59  79 SW5       30.17S
$$



USA.gov is the U.S. government's official web portal to all federal, state and local government web resources and services.